| time (UTC) | temp F | wind direction | speed knots | gust knots | rain 1hr in | rain 24hr in | rain mn in | humidity % | barometer mb |
| 20260507180002 | 63 | 268 | 7.0 | 19.1 | 0.00 | 0.00 | 0.00 | 41 | 1015.7 |
| 20260507174600 | 63 | 232 | 5.2 | 20.0 | 0.00 | 0.00 | 0.00 | 41 | 1015.9 |
| 20260507173059 | 62 | 234 | 7.8 | 15.6 | 0.00 | 0.00 | 0.00 | 39 | 1016.1 |
| 20260507171603 | 61 | 246 | 10.4 | 20.0 | 0.00 | 0.00 | 0.00 | 40 | 1016.3 |
| 20260507170055 | 62 | 246 | 9.6 | 18.2 | 0.00 | 0.00 | 0.00 | 40 | 1016.6 |
| 20260507164555 | 62 | 257 | 9.6 | 18.2 | 0.00 | 0.00 | 0.00 | 41 | 1016.8 |
| 20260507163050 | 61 | 300 | 7.8 | 16.5 | 0.00 | 0.00 | 0.00 | 41 | 1016.9 |
| 20260507161548 | 60 | 267 | 12.2 | 22.6 | 0.00 | 0.00 | 0.00 | 42 | 1017.2 |
| 20260507160054 | 60 | 287 | 7.0 | 20.9 | 0.00 | 0.00 | 0.00 | 43 | 1017.1 |
| 20260507154544 | 60 | 245 | 5.2 | 15.6 | 0.00 | 0.00 | 0.00 | 44 | 1017.3 |
| 20260507153050 | 59 | 252 | 8.7 | 20.0 | 0.00 | 0.00 | 0.00 | 42 | 1017.3 |
| 20260507151540 | 58 | 252 | 10.4 | 17.4 | 0.00 | 0.00 | 0.00 | 42 | 1017.4 |
| 20260507150037 | 58 | 257 | 8.7 | 14.8 | 0.00 | 0.00 | 0.00 | 43 | 1017.5 |
| 20260507144534 | 57 | 243 | 9.6 | 17.4 | 0.00 | 0.00 | 0.00 | 44 | 1017.7 |
| 20260507143032 | 56 | 281 | 7.8 | 17.4 | 0.00 | 0.00 | 0.00 | 45 | 1017.6 |
| 20260507141528 | 55 | 229 | 5.2 | 13.0 | 0.00 | 0.00 | 0.00 | 47 | 1017.8 |
| 20260507140025 | 54 | 279 | 3.5 | 13.0 | 0.00 | 0.00 | 0.00 | 47 | 1017.8 |
| 20260507134523 | 53 | 274 | 6.1 | 10.4 | 0.00 | 0.00 | 0.00 | 48 | 1017.8 |
| 20260507133019 | 52 | 271 | 6.1 | 11.3 | 0.00 | 0.00 | 0.00 | 49 | 1017.8 |
| 20260507131517 | 51 | 261 | 4.3 | 10.4 | 0.00 | 0.00 | 0.00 | 50 | 1018.0 |
| 20260507130011 | 50 | 252 | 3.5 | 7.8 | 0.00 | 0.00 | 0.00 | 52 | 1018.2 |
| 20260507124509 | 48 | 264 | 2.6 | 6.1 | 0.00 | 0.00 | 0.00 | 55 | 1018.2 |
| 20260507123010 | 46 | 73 | 1.7 | 3.5 | 0.00 | 0.00 | 0.00 | 56 | 1018.3 |
| 20260507121507 | 44 | 47 | 1.7 | 3.5 | 0.00 | 0.00 | 0.00 | 57 | 1018.3 |
| 20260507120006 | 43 | 47 | 1.7 | 3.5 | 0.00 | 0.00 | 0.00 | 58 | 1018.0 |
| 20260507114506 | 42 | 44 | 1.7 | 2.6 | 0.00 | 0.00 | 0.00 | 58 | 1018.3 |
| 20260507113006 | 42 | 44 | 1.7 | 3.5 | 0.00 | 0.00 | 0.00 | 58 | 1018.2 |
| 20260507111509 | 42 | 44 | 1.7 | 2.6 | 0.00 | 0.00 | 0.00 | 57 | 1018.2 |
| 20260507110002 | 42 | 44 | 0.9 | 1.7 | 0.00 | 0.00 | 0.00 | 57 | 1018.1 |
| 20260507104501 | 42 | 44 | 0.9 | 2.6 | 0.00 | 0.00 | 0.00 | 56 | 1018.1 |
| 20260507103059 | 43 | 44 | 0.0 | 1.7 | 0.00 | 0.00 | 0.00 | 55 | 1018.2 |
| 20260507101558 | 43 | 44 | 0.9 | 2.6 | 0.00 | 0.00 | 0.00 | 55 | 1018.2 |
| 20260507100058 | 43 | 44 | 1.7 | 2.6 | 0.00 | 0.00 | 0.00 | 55 | 1018.2 |
| 20260507094555 | 43 | 44 | 0.9 | 2.6 | 0.00 | 0.00 | 0.00 | 54 | 1018.3 |
| 20260507093053 | 43 | 44 | 1.7 | 2.6 | 0.00 | 0.00 | 0.00 | 54 | 1018.3 |
| 20260507091552 | 43 | 44 | 0.9 | 2.6 | 0.00 | 0.00 | 0.00 | 54 | 1018.3 |
| 20260507090051 | 43 | 44 | 0.9 | 1.7 | 0.00 | 0.00 | 0.00 | 54 | 1018.4 |
| 20260507084554 | 43 | 44 | 0.9 | 2.6 | 0.00 | 0.00 | 0.00 | 54 | 1018.4 |
| 20260507083050 | 44 | 44 | 0.9 | 2.6 | 0.00 | 0.00 | 0.00 | 53 | 1018.4 |
| 20260507081544 | 44 | 44 | 0.0 | 0.0 | 0.00 | 0.00 | 0.00 | 52 | 1018.6 |
| 20260507080057 | 45 | 44 | 0.0 | 1.7 | 0.00 | 0.00 | 0.00 | 52 | 1018.6 |
| 20260507074544 | 45 | 44 | 0.9 | 1.7 | 0.00 | 0.00 | 0.00 | 52 | 1018.5 |
| 20260507073037 | 45 | 44 | 0.9 | 2.6 | 0.00 | 0.00 | 0.00 | 52 | 1018.6 |
| 20260507071552 | 46 | 44 | 0.9 | 2.6 | 0.00 | 0.00 | 0.00 | 51 | 1018.9 |
| 20260507070035 | 46 | 44 | 1.7 | 2.6 | 0.00 | 0.00 | 0.00 | 51 | 1019.0 |
| 20260507064531 | 46 | 44 | 0.9 | 2.6 | 0.00 | 0.01 | 0.00 | 51 | 1019.3 |
| 20260507063032 | 47 | 44 | 0.9 | 2.6 | 0.00 | 0.01 | 0.00 | 50 | 1019.2 |
| 20260507061526 | 48 | 44 | 0.9 | 2.6 | 0.00 | 0.01 | 0.00 | 48 | 1019.2 |
| 20260507060028 | 48 | 44 | 0.0 | 0.0 | 0.00 | 0.01 | 0.00 | 48 | 1019.2 |
| 20260507054521 | 48 | 44 | 0.0 | 0.0 | 0.00 | 0.04 | 0.00 | 47 | 1019.2 |
| 20260507053023 | 48 | 44 | 0.0 | 0.0 | 0.00 | 0.04 | 0.00 | 46 | 1019.2 |
| 20260507051520 | 48 | 44 | 0.0 | 0.0 | 0.00 | 0.04 | 0.00 | 46 | 1019.2 |
| 20260507050016 | 49 | 44 | 0.0 | 0.0 | 0.00 | 0.04 | 0.00 | 43 | 1019.2 |
| 20260507044516 | 49 | 44 | 0.0 | 0.0 | 0.00 | 0.04 | 0.04 | 44 | 1019.1 |
| 20260507043016 | 48 | 44 | 0.0 | 0.0 | 0.00 | 0.04 | 0.04 | 45 | 1019.1 |
| 20260507041515 | 48 | 44 | 0.0 | 0.0 | 0.00 | 0.04 | 0.04 | 46 | 1019.4 |
| 20260507040014 | 48 | 44 | 0.0 | 0.0 | 0.00 | 0.04 | 0.04 | 48 | 1019.4 |
| 20260507034518 | 48 | 44 | 0.0 | 0.0 | 0.00 | 0.04 | 0.04 | 46 | 1019.5 |
| 20260507033014 | 48 | 44 | 0.0 | 0.0 | 0.00 | 0.04 | 0.04 | 47 | 1019.3 |
| 20260507031513 | 48 | 44 | 0.0 | 0.0 | 0.00 | 0.04 | 0.04 | 45 | 1019.4 |
| 20260507030014 | 49 | 44 | 0.0 | 0.0 | 0.00 | 0.04 | 0.04 | 45 | 1019.3 |
| 20260507024512 | 49 | 44 | 0.0 | 0.0 | 0.00 | 0.04 | 0.04 | 44 | 1019.2 |
| 20260507023012 | 50 | 44 | 0.0 | 0.0 | 0.00 | 0.04 | 0.04 | 43 | 1019.1 |
| 20260507021515 | 51 | 44 | 0.0 | 0.0 | 0.00 | 0.04 | 0.04 | 41 | 1019.0 |
| 20260507020011 | 52 | 44 | 0.0 | 0.0 | 0.00 | 0.04 | 0.04 | 37 | 1019.0 |
| 20260507014510 | 54 | 44 | 0.0 | 0.0 | 0.00 | 0.04 | 0.04 | 33 | 1018.9 |
| 20260507013009 | 55 | 44 | 0.0 | 0.0 | 0.00 | 0.04 | 0.04 | 29 | 1018.9 |
| 20260507011516 | 56 | 44 | 0.0 | 1.7 | 0.00 | 0.04 | 0.04 | 27 | 1018.7 |
| 20260507010009 | 57 | 44 | 0.9 | 2.6 | 0.00 | 0.04 | 0.04 | 24 | 1018.6 |
| 20260507004512 | 58 | 44 | 0.9 | 3.5 | 0.00 | 0.04 | 0.04 | 23 | 1018.7 |
| 20260507003009 | 58 | 41 | 1.7 | 7.0 | 0.00 | 0.04 | 0.04 | 22 | 1018.6 |
| 20260507001507 | 59 | 24 | 2.6 | 8.7 | 0.00 | 0.04 | 0.04 | 21 | 1018.7 |
| 20260507000006 | 59 | 32 | 2.6 | 9.6 | 0.00 | 0.04 | 0.04 | 20 | 1018.8 |
| 20260506234510 | 59 | 60 | 3.5 | 9.6 | 0.00 | 0.04 | 0.04 | 21 | 1018.8 |
| 20260506233005 | 60 | 32 | 3.5 | 8.7 | 0.00 | 0.04 | 0.04 | 20 | 1018.6 |
| 20260506231504 | 59 | 54 | 1.7 | 13.0 | 0.00 | 0.04 | 0.04 | 22 | 1018.8 |
| 20260506230004 | 60 | 34 | 4.3 | 11.3 | 0.00 | 0.04 | 0.04 | 22 | 1018.7 |
| 20260506224503 | 60 | 350 | 3.5 | 9.6 | 0.00 | 0.04 | 0.04 | 20 | 1018.8 |
| 20260506223001 | 60 | 44 | 2.6 | 9.6 | 0.00 | 0.04 | 0.04 | 21 | 1018.7 |
| 20260506221501 | 59 | 334 | 3.5 | 10.4 | 0.00 | 0.04 | 0.04 | 21 | 1019.0 |
| 20260506220109 | 59 | 30 | 3.5 | 12.2 | 0.00 | 0.04 | 0.04 | 21 | 1018.9 |
| 20260506220003 | 59 | 9 | 2.6 | 12.2 | 0.00 | 0.04 | 0.04 | 21 | 1018.9 |
| 20260506214558 | 59 | 40 | 2.6 | 11.3 | 0.00 | 0.04 | 0.04 | 22 | 1019.1 |
| 20260506213102 | 60 | 288 | 5.2 | 10.4 | 0.00 | 0.04 | 0.04 | 21 | 1019.1 |
| 20260506211557 | 60 | 355 | 2.6 | 13.9 | 0.00 | 0.04 | 0.04 | 21 | 1019.4 |
| 20260506210107 | 59 | 9 | 4.3 | 13.0 | 0.00 | 0.04 | 0.04 | 22 | 1019.6 |
| 20260506204554 | 59 | 73 | 7.0 | 13.9 | 0.00 | 0.04 | 0.04 | 23 | 1019.8 |
| 20260506203139 | 58 | 360 | 2.6 | 9.6 | 0.00 | 0.04 | 0.04 | 23 | 1019.9 |
| 20260506201551 | 58 | 9 | 4.3 | 11.3 | 0.00 | 0.04 | 0.04 | 24 | 1020.0 |
| 20260506200052 | 58 | 5 | 4.3 | 12.2 | 0.00 | 0.04 | 0.04 | 23 | 1020.2 |
| 20260506194549 | 58 | 69 | 3.5 | 8.7 | 0.00 | 0.04 | 0.04 | 22 | 1020.4 |
| 20260506193045 | 58 | 36 | 3.5 | 9.6 | 0.00 | 0.04 | 0.04 | 24 | 1020.6 |
| 20260506191550 | 57 | 13 | 4.3 | 12.2 | 0.00 | 0.04 | 0.04 | 22 | 1020.5 |
| 20260506190048 | 56 | 70 | 4.3 | 12.2 | 0.00 | 0.04 | 0.04 | 23 | 1020.5 |
| 20260506184551 | 56 | 19 | 2.6 | 9.6 | 0.00 | 0.04 | 0.04 | 25 | 1020.8 |
| 20260506183038 | 55 | 52 | 1.7 | 7.8 | 0.00 | 0.04 | 0.04 | 23 | 1021.0 |
| 20260506181538 | 55 | 16 | 2.6 | 10.4 | 0.00 | 0.04 | 0.04 | 23 | 1021.3 |